Hourly Data Report for October 22, 2016

All times are specified in Local Standard Time (LST). Add 1 hour to adjust for Daylight Saving Time where and when it is observed.

RESOLUTE BAY A
NUNAVUT

74°43'01.000" N
94°58'10.000" W
67.70 m
2403498
71924
YRB

Download Data

Hourly Data (October 2016)
Hourly Data Report for October 22, 2016
Temp Definition
°C
Dew Point Temp Definition
°C
Rel Hum Definition
%
Wind Dir Definition
10's deg

Wind Spd Definition
km/h
Visibility Definition
km
Stn Press Definition
kPa
Hmdx Definition


Wind Chill Definition


Weather Definition


TIME
00:00 Legend Double Dagger -8.9 -10.4 89 19 36 16.1 101.01   -19 Snow,Blowing Snow
01:00 Legend Double Dagger -8.8 -10.2 90 20 44 24.1 101.02   -20 Snow,Blowing Snow
02:00 Legend Double Dagger -8.5 -9.9 90 20 48 24.1 101.06   -20 Snow,Blowing Snow
03:00 Legend Double Dagger -8.8 -10.3 89 20 45 24.1 101.11   -20 Snow,Blowing Snow
04:00 Legend Double Dagger -8.5 -9.9 90 20 40 24.1 101.16   -19 Snow
05:00 Legend Double Dagger -8.3 -9.7 90 20 42 24.1 101.20   -19 Snow
06:00 Legend Double Dagger -8.5 -9.9 90 21 44 24.1 101.22   -19 Snow
07:00 Legend Double Dagger -7.9 -9.3 90 20 44 8.1 101.27   -18 Snow,Blowing Snow
08:00 Legend Double Dagger -7.8 -9.2 90 21 44 6.4 101.29   -18 Snow,Fog
09:00 Legend Double Dagger -8.2 -9.6 90 21 48 6.4 101.30   -19 Snow,Fog
10:00
11:00 Legend Double Dagger -9.3 -10.8 89 20 48 3.2 101.39   -21 Blowing Snow
12:00 Legend Double Dagger -9.7 -11.3 88 22 34 4.8 101.52   -20 Fog,Blowing Snow
13:00 Legend Double Dagger -9.7 -11.3 88 21 44 2.4 101.54   -21 Snow,Fog,Blowing Snow
14:00 Legend Double Dagger -9.7 -11.6 86 20 42 0.8 101.57   -21 Snow,Blowing Snow
15:00 Legend Double Dagger -9.5 -11.4 86 21 40 6.4 101.58   -20 Snow,Fog,Blowing Snow
16:00 Legend Double Dagger -8.9 -11.1 84 21 36 19.3 101.59   -19 Snow,Blowing Snow
17:00 Legend Double Dagger -8.9 -11.3 83 21 44 24.1 101.59   -20 Snow,Blowing Snow
18:00 Legend Double Dagger -8.4 -10.6 84 20 43 24.1 101.57   -19 Snow,Blowing Snow
19:00 Legend Double Dagger -8.6 -11.0 83 21 41 19.3 101.60   -19 Snow,Blowing Snow
20:00 Legend Double Dagger -8.9 -10.8 86 19 40 16.1 101.60   -19 Snow,Blowing Snow
21:00 Legend Double Dagger -9.0 -10.8 87 20 44 9.7 101.66   -20 Snow,Blowing Snow
22:00 Legend Double Dagger -9.1 -10.7 88 20 42 0.8 101.65   -20 Moderate Snow,Blowing Snow
23:00 Legend Double Dagger -8.7 -10.3 88 21 44 0.8 101.69   -19 Moderate Snow,Blowing Snow

Notes on Data Quality.

Legend

  • E = Estimated
  • M = Missing
  • NA = Not Available
  • ‡ = Partner data that is not subject to review by the National Climate Archives
Date modified: